This demonstration page uses our WeatherBlox Daily Observations layout. Learn more.

Left ArrowRight Arrow

30.21309, -93.2044

Hourly Observations for January 2, 2022

Temp ( °F °C ) Dew Point ( °F °C ) Humidity (%) Winds ( mph kmh ) Pressure ( in mb ) Visibility ( mi km ) Precip ( " mm )
12:15 am 00:15 Mostly Cloudy with Mist and Fog 73 22.8 70 21 90 90 WSW 7 11 29.79 1009 5 8 0.00 0.00
12:35 am 00:35 Mostly Cloudy with Mist and Fog 73 22.7 70 21 90 90 SW 8 13 29.79 1009 5 8 0.00 0.00
12:55 am 00:55 Cloudy with Mist and Fog 73 22.8 70 21 90 90 WSW 7 11 29.78 1008 5 8 0.00 0.00
1:15 am 01:15 Cloudy with Mist and Fog 72 22.4 70 20.9 91 91 SSW 5 7 29.79 1009 5 8 0.00 0.00
1:35 am 01:35 Cloudy with Mist and Fog 72 22.4 70 21 92 92 SW 5 7 29.78 1008 4 6 0.00 0.00
1:55 am 01:55 Cloudy with Mist and Fog 72 22.3 70 20.9 92 92 Calm 29.79 1009 4 6 0.00 0.00
2:15 am 02:15 Cloudy with Mist and Fog 72 22.2 70 20.9 92 92 Calm 29.79 1009 4 6 0.00 0.00
2:35 am 02:35 Cloudy with Mist and Fog 72 22.2 70 20.9 92 92 Calm 29.80 1009 4 6 0.00 0.00
2:55 am 02:55 Cloudy 71 21.7 69 20.7 94 94 Calm 29.79 1009 N/A 0.00 0.00
3:15 am 03:15 Cloudy with Mist and Fog 71 21.8 70 20.9 95 95 Calm 29.80 1009 3 4 0.00 0.00
3:35 am 03:35 Cloudy 68 20.2 63 17 82 82 N 14 22 29.82 1010 10 16 0.00 0.00
3:55 am 03:55 Cloudy 68 19.9 62 16.6 81 81 NNE 14 22 29.82 1010 10 16 0.00 0.00
4:15 am 04:15 Cloudy 67 19.6 62 16.5 82 82 N 10 17 29.84 1010 10 16 0.00 0.00
4:35 am 04:35 Cloudy 67 19.3 61 16 81 81 N 12 19 29.84 1010 10 16 0.00 0.00
4:55 am 04:55 Cloudy 60 15.5 54 12.3 81 81 N 23 37 29.86 1011 10 16 0.00 0.00
5:15 am 05:15 Cloudy 57 14 51 10.8 81 81 N 18 30 29.88 1012 10 16 0.00 0.00
5:35 am 05:35 Cloudy 55 12.6 50 10.1 85 85 NNW 25 41 29.92 1013 10 16 0.00 0.00
6:00 am 06:00 Mostly Cloudy 52 11 46 8 82 82 NNW 23 37 29.95 1014 7 11 0.00 0.00
6:49 am 06:49 Mostly Cloudy 48 9 45 7 87 87 NNW 21 33 29.98 1015 10 16 0.00 0.00
7:46 am 07:46 Cloudy 46 8 41 5 82 82 NNW 16 26 30.01 1016 10 16 0.00 0.00
8:45 am 08:45 Cloudy 45 7 37 3 76 76 NNW 21 33 30.07 1018 10 16 0.00 0.00
9:50 am 09:50 Mostly Cloudy 41 5 36 2 81 81 NNW 23 37 30.12 1020 10 16 0.00 0.00
10:45 am 10:45 Cloudy 39 4 32 0 75 75 NNW 21 33 30.15 1021 10 16 0.00 0.00
11:49 am 11:49 Cloudy 37 3 28 -2 70 70 NNW 20 31 30.18 1022 10 16 0.00 0.00
12:55 pm 12:55 Mostly Cloudy 37 3 27 -3 65 65 NNW 25 41 30.18 1022 10 16 0.00 0.00
1:51 pm 13:51 Partly Cloudy 39 4 27 -3 61 61 NNW 21 33 30.21 1023 10 16 0.00 0.00
2:55 pm 14:55 Mostly Sunny 41 5 27 -3 57 57 NNW 21 33 30.23 1024 10 16 0.00 0.00
3:45 pm 15:45 Partly Cloudy 39 4 25 -4 56 56 NW 29 46 30.26 1025 10 16 0.00 0.00
4:45 pm 16:45 Mostly Sunny 36 2 23 -5 60 60 N 23 37 30.29 1026 10 16 0.00 0.00
5:55 pm 17:55 Mostly Clear 32 0 19 -7 60 60 N 23 37 30.32 1027 10 16 0.00 0.00
6:45 pm 18:45 Mostly Clear 30 -1 21 -6 69 69 N 17 28 30.35 1028 10 16 0.00 0.00
7:50 pm 19:50 Mostly Clear 32 0 21 -6 64 64 NNW 17 28 30.41 1030 10 16 0.00 0.00
8:45 pm 20:45 Mostly Clear 30 -1 21 -6 69 69 N 8 13 30.41 1030 10 16 0.00 0.00
9:45 pm 21:45 Mostly Clear 30 -1 21 -6 69 69 N 8 13 30.41 1030 10 16 0.00 0.00
10:15 pm 22:15 Clear 31 -0.7 22 -5.6 70 70 N 13 20 30.43 1031 10 16 0.00 0.00
10:35 pm 22:35 Clear 31 -0.8 23 -5.2 72 72 N 13 20 30.43 1031 10 16 0.00 0.00
10:55 pm 22:55 Clear 30 -1 23 -5.1 74 74 N 10 17 30.43 1031 10 16 0.00 0.00
11:15 pm 23:15 Clear 30 -1.1 23 -5 75 75 NNW 9 15 30.42 1030 10 16 0.00 0.00
11:35 pm 23:35 Clear 30 -1.1 23 -4.8 76 76 NNW 8 13 30.42 1030 10 16 0.00 0.00
11:55 pm 23:55 Clear 30 -1.1 23 -4.8 76 76 NNW 9 15 30.42 1030 10 16 0.00 0.00

Powered by AerisWeather